SCP
0 0 -0 -0 -0 -0 -0 -0 -0 -0 -0 -0 -0 -0 -0 -0 -0 0 0 0 -0 -0 -0 -0 0 0 0 0 0 0 1 0 0
0 0 0 -0 -0 -0 -0 -0 -0 -1 -1 -0 -0 -0 -0 -0 -0 0 0 0 0 -0 -0 0 0 -0 0 0 0 0 0 0 0
0 0 0 0 -0 -0 -0 -0 -0 -0 -0 -1 -0 -0 -0 -0 -0 -0 0 0 0 0 0 -0 0 0 0 0 0 0 0 0 0
0 0 0 0 0 0 -0 -0 -0 -0 -0 -0 -0 -0 -0 -0 0 -0 0 0 0 0 0 0 0 0 0 0 0 0 0 0 0
0 0 0 0 0 0 0 0 0 -0 -0 -0 -0 -0 -0 -0 0 0 0 0 0 0 0 0 0 0 0 0 0 0 0 0 0
0 0 0 0 0 0 0 0 0 0 -0 -0 -0 -0 -0 -0 -0 -0 0 0 0 0 0 0 0 0 0 0 0 0 0 0 0
1 1 0 1 1 1 1 0 0 0 0 -0 -0 -0 -0 -0 -0 -0 0 0 0 0 0 0 0 0 0 0 0 0 0 0 0
1 1 1 1 1 1 1 1 1 0 0 0 0 0 -0 0 0 0 0 0 0 0 0 0 0 0 0 0 0 0 0 0 0
2 1 1 1 1 1 1 2 2 1 1 0 0 0 0 0 1 1 1 0 0 0 0 0 0 0 0 0 0 0 0 0 0
1 1 1 1 1 1 1 1 2 2 1 1 1 1 0 0 1 1 1 1 0 0 0 0 0 0 0 0 0 0 0 0 0
0 0 0 1 1 1 1 1 1 1 2 1 1 2 1 0 0 1 1 -0 1 1 1 1 1 0 0 0 0 0 0 0 0
0 0 0 0 0 0 1 1 1 2 2 1 1 2 2 1 1 1 0 0 1 1 2 1 1 0 0 0 0 0 0 0 0
0 0 0 0 0 0 0 1 1 2 1 1 1 2 2 2 2 1 1 1 1 1 2 3 1 1 0 0 0 0 0 0 0
0 0 0 0 0 0 0 0 1 1 1 1 3 3 3 2 3 2 1 2 3 2 2 2 2 1 1 1 0 0 0 0 0
0 0 0 0 0 0 0 0 1 1 1 1 1 2 3 3 3 3 3 1 1 1 2 3 3 2 1 1 1 1 0 0 0
0 0 0 0 0 0 0 0 0 0 1 1 1 1 2 3 3 3 2 1 1 2 2 1 0 0 1 1 2 1 0 0 0
0 0 0 0 0 0 0 0 0 0 0 0 1 1 3 3 2 3 2 2 2 1 1 1 0 0 -0 0 1 1 0 0 0
0 0 0 0 0 0 0 0 0 0 0 0 1 1 3 4 4 1 2 2 4 3 2 2 2 1 1 1 1 1 0 1 1
0 0 0 0 0 0 0 0 0 0 0 0 0 1 1 3 2 0 0 0 0 0 0 0 0 0 1 1 0 0 0 0 0
0 0 0 0 0 0 0 0 0 0 0 0 0 1 1 1 1 0 1 1 0 0 0 0 0 0 0 1 0 0 0 0 0
Wind_Speed_500mb
8 25 36 46 52 52 54 56 52 57 63 66 61 58 56 51 46 42 44 44 39 43 42 42 46 43 43 43 38 41 33 25 22
11 9 26 37 45 51 52 54 57 58 59 64 64 61 58 55 50 47 43 45 44 43 44 38 42 47 43 48 46 41 35 32 29
18 16 10 28 40 48 51 52 53 53 55 64 64 61 58 57 53 50 46 44 47 47 44 45 42 43 43 45 44 37 34 30 29
25 26 21 16 31 37 42 44 50 53 57 59 61 58 55 52 53 50 48 45 45 46 47 46 49 49 50 48 42 38 39 37 35
28 28 32 17 16 26 34 41 46 50 51 57 59 58 57 53 49 49 45 47 44 46 51 52 54 54 54 53 45 43 45 41 33
28 30 33 30 10 11 23 34 42 47 49 51 52 54 56 55 53 52 47 45 44 45 51 55 51 56 53 49 46 49 49 47 41
27 29 31 30 26 12 12 23 33 38 40 46 49 51 52 56 60 58 53 46 45 44 48 55 56 52 50 49 48 46 45 42 42
28 32 34 32 30 25 16 12 22 30 34 38 44 52 56 61 57 57 53 50 48 43 45 50 56 54 49 50 46 43 45 45 43
28 33 36 35 32 30 25 18 14 21 29 35 40 48 52 53 59 61 63 59 53 49 48 50 55 55 52 50 49 47 52 49 47
29 33 35 37 34 35 31 28 25 19 23 29 36 41 46 52 57 65 65 65 61 57 53 53 56 52 51 52 51 52 54 53 49
31 33 37 37 38 36 35 32 31 28 16 25 33 37 43 46 53 58 61 64 62 60 56 53 54 56 53 50 51 57 58 53 54
33 34 34 34 33 34 33 35 35 34 24 18 28 35 40 44 48 52 57 62 73 65 57 59 53 52 57 61 61 59 57 54 55
43 39 35 38 39 37 32 31 32 29 26 16 24 31 37 41 47 52 62 67 58 56 58 56 50 44 48 55 59 58 51 48 53
45 46 44 40 37 35 33 31 28 26 22 17 17 26 35 39 46 52 57 64 52 54 61 43 48 42 48 51 57 57 55 50 49
56 54 52 47 44 38 33 29 26 25 22 22 14 29 30 37 40 44 45 74 49 46 55 54 52 42 41 45 56 56 49 49 51
66 61 59 55 50 46 39 31 27 27 26 22 22 17 36 36 41 50 50 58 51 46 63 59 55 49 56 53 56 50 50 49 51
65 62 60 57 56 54 49 40 36 32 30 28 23 22 21 45 50 50 53 54 51 55 54 66 58 59 119 62 52 53 53 56 52
65 65 65 60 57 57 52 45 46 43 38 32 26 26 28 34 28 36 50 57 50 60 62 65 67 57 51 49 48 48 49 48 51
72 65 57 58 54 56 56 50 49 48 44 39 33 28 30 33 24 34 58 49 40 46 44 43 44 42 40 40 42 42 42 44 45
64 60 59 63 61 57 56 53 52 53 48 44 39 33 30 33 32 36 28 46 46 43 49 53 50 55 53 52 46 43 43 46 44
Wind_Direction_500mb
181 190 188 190 192 195 199 200 205 202 209 213 218 223 223 223 225 217 217 218 215 216 216 210 211 220 222 230 225 228 232 238 245
58 199 208 204 198 197 200 202 205 203 205 211 216 221 222 223 223 215 213 212 218 216 216 217 223 221 221 230 226 233 235 237 245
33 20 236 217 213 207 202 203 205 203 207 211 215 215 220 221 223 223 214 212 213 213 216 211 214 210 216 221 222 226 228 232 244
21 9 8 240 221 216 214 208 203 204 205 208 210 211 213 214 219 222 220 217 217 216 213 218 211 216 218 218 221 226 233 234 229
15 15 14 7 226 221 215 212 209 207 211 209 210 210 212 215 217 217 216 219 219 218 217 216 219 220 221 224 229 231 235 235 231
14 16 17 20 11 236 223 217 216 213 210 212 212 208 211 210 212 216 215 222 218 219 219 219 217 220 220 225 229 234 235 234 234
9 15 17 16 18 1 248 230 225 222 219 212 209 211 208 211 213 217 219 217 225 221 222 220 217 217 220 225 230 230 233 235 234
9 12 12 11 11 10 0 279 239 230 224 220 214 211 212 215 218 218 216 218 228 226 225 222 222 220 221 223 225 231 235 233 234
14 11 8 4 4 3 1 350 307 253 238 227 222 218 218 218 218 215 220 221 223 228 229 226 224 224 225 227 229 233 234 239 242
9 4 1 1 2 360 350 350 340 316 258 238 228 223 222 218 218 219 221 223 221 222 225 226 227 226 228 232 234 233 237 240 239
2 356 353 350 354 350 350 346 342 336 292 241 230 226 225 220 220 220 218 217 219 222 221 224 228 231 230 232 236 237 242 245 247
348 346 343 340 336 334 338 343 343 347 329 254 235 227 225 222 222 220 217 221 221 223 226 233 230 233 235 239 244 246 246 245 246
328 328 327 331 334 335 329 325 338 339 342 292 252 242 228 225 226 224 218 217 228 223 218 221 223 231 239 242 245 246 246 242 241
307 309 311 312 316 319 323 328 321 332 325 324 266 243 237 227 227 232 225 223 224 224 219 216 229 232 237 239 244 242 240 235 239
298 296 296 296 296 299 307 314 320 319 318 308 298 244 234 233 228 227 229 220 227 228 224 228 234 232 237 234 238 241 239 240 240
293 287 285 284 283 285 287 293 301 307 306 311 300 282 228 230 227 224 220 224 223 229 225 224 232 243 229 233 232 234 239 238 241
290 285 279 278 275 273 274 278 283 289 300 305 296 293 268 224 224 227 223 210 216 218 218 216 234 245 231 239 237 237 239 239 233
286 282 274 270 269 268 264 268 270 276 281 291 289 279 278 271 244 223 226 221 202 213 217 221 225 222 218 234 237 240 236 236 224
279 279 269 264 265 261 263 261 262 264 266 272 280 274 278 279 285 242 227 224 220 220 216 218 223 218 225 229 232 237 232 222 226
276 273 268 264 263 261 258 260 260 253 257 261 267 267 267 270 279 265 230 215 205 219 215 206 228 219 240 237 230 229 219 223 225
Wind_Speed_850mb
8 25 36 46 52 52 54 56 52 57 63 66 61 58 56 51 46 42 44 44 39 43 42 42 46 43 43 43 38 41 33 25 22
11 9 26 37 45 51 52 54 57 58 59 64 64 61 58 55 50 47 43 45 44 43 44 38 42 47 43 48 46 41 35 32 29
18 16 10 28 40 48 51 52 53 53 55 64 64 61 58 57 53 50 46 44 47 47 44 45 42 43 43 45 44 37 34 30 29
25 26 21 16 31 37 42 44 50 53 57 59 61 58 55 52 53 50 48 45 45 46 47 46 49 49 50 48 42 38 39 37 35
28 28 32 17 16 26 34 41 46 50 51 57 59 58 57 53 49 49 45 47 44 46 51 52 54 54 54 53 45 43 45 41 33
28 30 33 30 10 11 23 34 42 47 49 51 52 54 56 55 53 52 47 45 44 45 51 55 51 56 53 49 46 49 49 47 41
27 29 31 30 26 12 12 23 33 38 40 46 49 51 52 56 60 58 53 46 45 44 48 55 56 52 50 49 48 46 45 42 42
28 32 34 32 30 25 16 12 22 30 34 38 44 52 56 61 57 57 53 50 48 43 45 50 56 54 49 50 46 43 45 45 43
28 33 36 35 32 30 25 18 14 21 29 35 40 48 52 53 59 61 63 59 53 49 48 50 55 55 52 50 49 47 52 49 47
29 33 35 37 34 35 31 28 25 19 23 29 36 41 46 52 57 65 65 65 61 57 53 53 56 52 51 52 51 52 54 53 49
31 33 37 37 38 36 35 32 31 28 16 25 33 37 43 46 53 58 61 64 62 60 56 53 54 56 53 50 51 57 58 53 54
33 34 34 34 33 34 33 35 35 34 24 18 28 35 40 44 48 52 57 62 73 65 57 59 53 52 57 61 61 59 57 54 55
43 39 35 38 39 37 32 31 32 29 26 16 24 31 37 41 47 52 62 67 58 56 58 56 50 44 48 55 59 58 51 48 53
45 46 44 40 37 35 33 31 28 26 22 17 17 26 35 39 46 52 57 64 52 54 61 43 48 42 48 51 57 57 55 50 49
56 54 52 47 44 38 33 29 26 25 22 22 14 29 30 37 40 44 45 74 49 46 55 54 52 42 41 45 56 56 49 49 51
66 61 59 55 50 46 39 31 27 27 26 22 22 17 36 36 41 50 50 58 51 46 63 59 55 49 56 53 56 50 50 49 51
65 62 60 57 56 54 49 40 36 32 30 28 23 22 21 45 50 50 53 54 51 55 54 66 58 59 119 62 52 53 53 56 52
65 65 65 60 57 57 52 45 46 43 38 32 26 26 28 34 28 36 50 57 50 60 62 65 67 57 51 49 48 48 49 48 51
72 65 57 58 54 56 56 50 49 48 44 39 33 28 30 33 24 34 58 49 40 46 44 43 44 42 40 40 42 42 42 44 45
64 60 59 63 61 57 56 53 52 53 48 44 39 33 30 33 32 36 28 46 46 43 49 53 50 55 53 52 46 43 43 46 44
Wind_Direction_850mb
181 190 188 190 192 195 199 200 205 202 209 213 218 223 223 223 225 217 217 218 215 216 216 210 211 220 222 230 225 228 232 238 245
58 199 208 204 198 197 200 202 205 203 205 211 216 221 222 223 223 215 213 212 218 216 216 217 223 221 221 230 226 233 235 237 245
33 20 236 217 213 207 202 203 205 203 207 211 215 215 220 221 223 223 214 212 213 213 216 211 214 210 216 221 222 226 228 232 244
21 9 8 240 221 216 214 208 203 204 205 208 210 211 213 214 219 222 220 217 217 216 213 218 211 216 218 218 221 226 233 234 229
15 15 14 7 226 221 215 212 209 207 211 209 210 210 212 215 217 217 216 219 219 218 217 216 219 220 221 224 229 231 235 235 231
14 16 17 20 11 236 223 217 216 213 210 212 212 208 211 210 212 216 215 222 218 219 219 219 217 220 220 225 229 234 235 234 234
9 15 17 16 18 1 248 230 225 222 219 212 209 211 208 211 213 217 219 217 225 221 222 220 217 217 220 225 230 230 233 235 234
9 12 12 11 11 10 0 279 239 230 224 220 214 211 212 215 218 218 216 218 228 226 225 222 222 220 221 223 225 231 235 233 234
14 11 8 4 4 3 1 350 307 253 238 227 222 218 218 218 218 215 220 221 223 228 229 226 224 224 225 227 229 233 234 239 242
9 4 1 1 2 360 350 350 340 316 258 238 228 223 222 218 218 219 221 223 221 222 225 226 227 226 228 232 234 233 237 240 239
2 356 353 350 354 350 350 346 342 336 292 241 230 226 225 220 220 220 218 217 219 222 221 224 228 231 230 232 236 237 242 245 247
348 346 343 340 336 334 338 343 343 347 329 254 235 227 225 222 222 220 217 221 221 223 226 233 230 233 235 239 244 246 246 245 246
328 328 327 331 334 335 329 325 338 339 342 292 252 242 228 225 226 224 218 217 228 223 218 221 223 231 239 242 245 246 246 242 241
307 309 311 312 316 319 323 328 321 332 325 324 266 243 237 227 227 232 225 223 224 224 219 216 229 232 237 239 244 242 240 235 239
298 296 296 296 296 299 307 314 320 319 318 308 298 244 234 233 228 227 229 220 227 228 224 228 234 232 237 234 238 241 239 240 240
293 287 285 284 283 285 287 293 301 307 306 311 300 282 228 230 227 224 220 224 223 229 225 224 232 243 229 233 232 234 239 238 241
290 285 279 278 275 273 274 278 283 289 300 305 296 293 268 224 224 227 223 210 216 218 218 216 234 245 231 239 237 237 239 239 233
286 282 274 270 269 268 264 268 270 276 281 291 289 279 278 271 244 223 226 221 202 213 217 221 225 222 218 234 237 240 236 236 224
279 279 269 264 265 261 263 261 262 264 266 272 280 274 278 279 285 242 227 224 220 220 216 218 223 218 225 229 232 237 232 222 226
276 273 268 264 263 261 258 260 260 253 257 261 267 267 267 270 279 265 230 215 205 219 215 206 228 219 240 237 230 229 219 223 225